| time (UTC) | temp C | wind direction | speed KPH | gust KPH | rain 1hr cm | rain 24hr cm | rain mn cm | humidity % | barometer mb |
| 20260510120010 | 9 | 44 | 3.2 | 4.8 | 0.00 | 0.00 | 0.00 | 90 | 1016.0 |
| 20260510114510 | 8 | 59 | 1.6 | 6.4 | 0.00 | 0.00 | 0.00 | 92 | 1015.7 |
| 20260510113018 | 7 | 84 | 1.6 | 6.4 | 0.00 | 0.00 | 0.00 | 94 | 1015.5 |
| 20260510111512 | 7 | 36 | 1.6 | 3.2 | 0.00 | 0.00 | 0.00 | 94 | 1015.4 |
| 20260510110018 | 7 | 67 | 1.6 | 3.2 | 0.00 | 0.00 | 0.00 | 94 | 1015.5 |
| 20260510104513 | 7 | 63 | 1.6 | 3.2 | 0.00 | 0.00 | 0.00 | 93 | 1015.4 |
| 20260510103013 | 7 | 31 | 1.6 | 3.2 | 0.00 | 0.00 | 0.00 | 93 | 1015.1 |
| 20260510101513 | 7 | 48 | 1.6 | 6.4 | 0.00 | 0.00 | 0.00 | 93 | 1014.9 |
| 20260510100016 | 7 | 69 | 3.2 | 4.8 | 0.00 | 0.00 | 0.00 | 93 | 1014.7 |
| 20260510094532 | 7 | 59 | 1.6 | 4.8 | 0.00 | 0.00 | 0.00 | 93 | 1014.6 |
| 20260510093014 | 7 | 30 | 3.2 | 8.0 | 0.00 | 0.00 | 0.00 | 93 | 1014.6 |
| 20260510091520 | 7 | 167 | 1.6 | 3.2 | 0.00 | 0.00 | 0.00 | 93 | 1014.5 |
| 20260510090015 | 7 | 73 | 0.0 | 4.8 | 0.00 | 0.00 | 0.00 | 93 | 1014.4 |
| 20260510084514 | 7 | 65 | 0.0 | 3.2 | 0.00 | 0.00 | 0.00 | 93 | 1014.2 |
| 20260510083013 | 7 | 60 | 1.6 | 3.2 | 0.00 | 0.00 | 0.00 | 94 | 1014.2 |
| 20260510081516 | 7 | 51 | 0.0 | 3.2 | 0.00 | 0.00 | 0.00 | 94 | 1014.2 |
| 20260510080018 | 7 | 59 | 0.0 | 3.2 | 0.00 | 0.00 | 0.00 | 94 | 1014.0 |
| 20260510074515 | 7 | 61 | 0.0 | 3.2 | 0.00 | 0.00 | 0.00 | 93 | 1013.9 |
| 20260510073019 | 7 | 61 | 0.0 | 3.2 | 0.00 | 0.00 | 0.00 | 93 | 1013.8 |
| 20260510071516 | 7 | 66 | 0.0 | 3.2 | 0.00 | 0.00 | 0.00 | 93 | 1013.9 |
| 20260510070023 | 7 | 66 | 1.6 | 3.2 | 0.00 | 0.00 | 0.00 | 93 | 1013.9 |
| 20260510064516 | 7 | 82 | 0.0 | 3.2 | 0.00 | 0.00 | 0.00 | 93 | 1013.8 |
| 20260510063017 | 7 | 56 | 1.6 | 3.2 | 0.00 | 0.00 | 0.00 | 93 | 1014.0 |
| 20260510061518 | 7 | 72 | 1.6 | 3.2 | 0.00 | 0.00 | 0.00 | 93 | 1014.1 |
| 20260510060018 | 7 | 72 | 0.0 | 3.2 | 0.00 | 0.00 | 0.00 | 93 | 1014.1 |
| 20260510054518 | 8 | 76 | 0.0 | 3.2 | 0.00 | 0.00 | 0.00 | 93 | 1014.0 |
| 20260510053042 | 8 | 74 | 0.0 | 3.2 | 0.00 | 0.00 | 0.00 | 93 | 1014.0 |
| 20260510051520 | 8 | 58 | 1.6 | 3.2 | 0.00 | 0.00 | 0.00 | 92 | 1014.2 |
| 20260510050021 | 8 | 75 | 0.0 | 3.2 | 0.00 | 0.00 | 0.00 | 92 | 1014.2 |
| 20260510044520 | 8 | 61 | 0.0 | 3.2 | 0.00 | 0.00 | 0.00 | 92 | 1014.2 |
| 20260510043033 | 8 | 76 | 1.6 | 3.2 | 0.00 | 0.00 | 0.00 | 92 | 1014.0 |
| 20260510041526 | 8 | 61 | 1.6 | 3.2 | 0.00 | 0.00 | 0.00 | 92 | 1014.0 |
| 20260510040033 | 9 | 79 | 0.0 | 4.8 | 0.00 | 0.00 | 0.00 | 91 | 1013.7 |
| 20260510034520 | 9 | 64 | 0.0 | 3.2 | 0.00 | 0.00 | 0.00 | 91 | 1013.5 |
| 20260510033005 | 9 | 64 | 0.0 | 3.2 | 0.00 | 0.00 | 0.00 | 91 | 1013.5 |
| 20260510031509 | 10 | 62 | 1.6 | 3.2 | 0.00 | 0.00 | 0.00 | 90 | 1013.4 |
| 20260510030012 | 10 | 62 | 1.6 | 3.2 | 0.00 | 0.00 | 0.00 | 90 | 1013.3 |
| 20260510024518 | 10 | 62 | 0.0 | 3.2 | 0.00 | 0.00 | 0.00 | 89 | 1013.3 |
| 20260510023021 | 10 | 60 | 0.0 | 3.2 | 0.00 | 0.00 | 0.00 | 88 | 1013.1 |
| 20260510021519 | 10 | 60 | 0.0 | 1.6 | 0.00 | 0.00 | 0.00 | 88 | 1013.0 |
| 20260510020011 | 11 | 60 | 1.6 | 3.2 | 0.00 | 0.00 | 0.00 | 86 | 1012.9 |
| 20260510014514 | 11 | 71 | 1.6 | 3.2 | 0.00 | 0.00 | 0.00 | 84 | 1012.4 |
| 20260510013024 | 12 | 73 | 0.0 | 3.2 | 0.00 | 0.00 | 0.00 | 84 | 1012.1 |
| 20260510011533 | 12 | 64 | 1.6 | 3.2 | 0.00 | 0.00 | 0.00 | 82 | 1011.8 |
| 20260510010010 | 12 | 76 | 0.0 | 3.2 | 0.00 | 0.00 | 0.00 | 82 | 1011.6 |
| 20260510004517 | 12 | 58 | 1.6 | 3.2 | 0.00 | 0.00 | 0.00 | 80 | 1011.4 |
| 20260510003018 | 13 | 352 | 0.0 | 3.2 | 0.00 | 0.00 | 0.00 | 75 | 1011.1 |
| 20260510001520 | 14 | 5 | 0.0 | 3.2 | 0.00 | 0.00 | 0.00 | 74 | 1011.0 |
| 20260510000008 | 15 | 232 | 0.0 | 3.2 | 0.00 | 0.00 | 0.00 | 71 | 1010.7 |
| 20260509234512 | 16 | 219 | 1.6 | 4.8 | 0.00 | 0.00 | 0.00 | 68 | 1010.6 |
| 20260509233015 | 17 | 351 | 1.6 | 4.8 | 0.00 | 0.00 | 0.00 | 64 | 1010.6 |
| 20260509231522 | 18 | 267 | 0.0 | 3.2 | 0.00 | 0.00 | 0.00 | 57 | 1010.5 |
| 20260509230008 | 18 | 65 | 3.2 | 6.4 | 0.00 | 0.00 | 0.00 | 52 | 1010.4 |
| 20260509224509 | 19 | 88 | 3.2 | 6.4 | 0.00 | 0.00 | 0.00 | 50 | 1010.6 |
| 20260509223014 | 19 | 258 | 3.2 | 8.0 | 0.00 | 0.00 | 0.00 | 48 | 1010.6 |
| 20260509221522 | 19 | 232 | 0.0 | 9.7 | 0.00 | 0.00 | 0.00 | 47 | 1010.6 |
| 20260509220008 | 20 | 339 | 3.2 | 16.1 | 0.00 | 0.00 | 0.00 | 46 | 1010.4 |
| 20260509214508 | 19 | 336 | 4.8 | 16.1 | 0.00 | 0.00 | 0.00 | 48 | 1010.6 |
| 20260509213025 | 19 | 335 | 4.8 | 14.5 | 0.00 | 0.00 | 0.00 | 47 | 1010.5 |
| 20260509211516 | 19 | 269 | 3.2 | 16.1 | 0.00 | 0.00 | 0.00 | 47 | 1010.4 |
| 20260509210020 | 19 | 326 | 4.8 | 17.7 | 0.00 | 0.00 | 0.00 | 46 | 1010.3 |
| 20260509204505 | 19 | 284 | 4.8 | 12.9 | 0.00 | 0.00 | 0.00 | 47 | 1010.2 |
| 20260509203016 | 20 | 190 | 1.6 | 14.5 | 0.00 | 0.00 | 0.00 | 48 | 1010.0 |
| 20260509201515 | 20 | 257 | 4.8 | 11.3 | 0.00 | 0.00 | 0.00 | 45 | 1009.8 |
| 20260509200020 | 20 | 280 | 1.6 | 12.9 | 0.00 | 0.00 | 0.00 | 46 | 1009.8 |
| 20260509194526 | 19 | 360 | 8.0 | 12.9 | 0.00 | 0.00 | 0.00 | 43 | 1010.0 |
| 20260509193016 | 20 | 342 | 16.1 | 29.0 | 0.00 | 0.00 | 0.00 | 44 | 1010.0 |
| 20260509191512 | 20 | 306 | 14.5 | 20.9 | 0.00 | 0.00 | 0.00 | 42 | 1009.8 |
| 20260509190023 | 20 | 313 | 1.6 | 19.3 | 0.00 | 0.00 | 0.00 | 43 | 1009.6 |
| 20260509184533 | 20 | 126 | 6.4 | 17.7 | 0.00 | 0.00 | 0.00 | 45 | 1009.8 |
| 20260509183008 | 20 | 117 | 1.6 | 14.5 | 0.00 | 0.00 | 0.00 | 46 | 1010.0 |
| 20260509181513 | 20 | 103 | 4.8 | 9.7 | 0.00 | 0.00 | 0.00 | 51 | 1009.8 |
| 20260509180019 | 18 | 349 | 3.2 | 9.7 | 0.00 | 0.00 | 0.00 | 53 | 1010.1 |
| 20260509174524 | 18 | 101 | 8.0 | 14.5 | 0.00 | 0.00 | 0.00 | 52 | 1010.1 |
| 20260509173025 | 18 | 67 | 3.2 | 9.7 | 0.00 | 0.00 | 0.00 | 56 | 1010.3 |
| 20260509171509 | 18 | 305 | 1.6 | 14.5 | 0.00 | 0.00 | 0.00 | 58 | 1010.5 |
| 20260509170022 | 17 | 53 | 1.6 | 6.4 | 0.00 | 0.00 | 0.00 | 57 | 1010.8 |
| 20260509164518 | 16 | 140 | 4.8 | 9.7 | 0.00 | 0.00 | 0.00 | 58 | 1011.0 |
| 20260509163032 | 16 | 360 | 3.2 | 8.0 | 0.00 | 0.00 | 0.00 | 60 | 1011.0 |
| 20260509161528 | 16 | 13 | 6.4 | 11.3 | 0.00 | 0.00 | 0.00 | 59 | 1010.9 |
| 20260509160012 | 16 | 269 | 1.6 | 17.7 | 0.00 | 0.00 | 0.00 | 57 | 1011.1 |
| 20260509154518 | 16 | 343 | 4.8 | 9.7 | 0.00 | 0.00 | 0.00 | 57 | 1011.0 |
| 20260509153031 | 16 | 302 | 1.6 | 11.3 | 0.00 | 0.00 | 0.00 | 59 | 1010.8 |
| 20260509151526 | 16 | 331 | 1.6 | 11.3 | 0.00 | 0.00 | 0.00 | 57 | 1011.2 |
| 20260509150011 | 16 | 178 | 6.4 | 14.5 | 0.00 | 0.00 | 0.00 | 55 | 1011.2 |
| 20260509144519 | 16 | 293 | 8.0 | 17.7 | 0.00 | 0.00 | 0.00 | 56 | 1011.2 |
| 20260509143022 | 16 | 271 | 3.2 | 11.3 | 0.00 | 0.00 | 0.00 | 55 | 1011.0 |
| 20260509141524 | 16 | 294 | 3.2 | 9.7 | 0.00 | 0.00 | 0.00 | 55 | 1010.8 |
| 20260509140027 | 17 | 190 | 3.2 | 12.9 | 0.00 | 0.00 | 0.00 | 53 | 1010.4 |
| 20260509134513 | 16 | 360 | 3.2 | 6.4 | 0.00 | 0.00 | 0.00 | 59 | 1010.5 |
| 20260509133021 | 14 | 209 | 3.2 | 6.4 | 0.00 | 0.00 | 0.00 | 67 | 1010.5 |
| 20260509131524 | 13 | 52 | 0.0 | 3.2 | 0.00 | 0.00 | 0.00 | 73 | 1010.9 |
| 20260509130036 | 12 | 53 | 0.0 | 4.8 | 0.00 | 0.00 | 0.00 | 74 | 1011.2 |
| 20260509124535 | 11 | 29 | 0.0 | 4.8 | 0.00 | 0.00 | 0.00 | 76 | 1011.4 |
| 20260509123018 | 11 | 344 | 0.0 | 3.2 | 0.00 | 0.00 | 0.00 | 79 | 1011.6 |
| 20260509121526 | 10 | 81 | 0.0 | 3.2 | 0.00 | 0.00 | 0.00 | 82 | 1011.6 |